Weather History for Cozumel, Mexico

Change the Weather History Date:

Monday, February 4, 2013

  Actual Average Record
Temperature  
Mean Temperature 68 °F -  
Max Temperature 77 °F 82 °F 86 °F (1999)
Min Temperature 60 °F 69 °F 60 °F (2013)
Cooling Degree Days 4    
Growing Degree Days 18 (Base 50)    
Moisture  
Dew Point 52 °F    
Average Humidity 57    
Maximum Humidity 88    
Minimum Humidity 41    
Precipitation  
Precipitation 0.00 in - - ()
Sea Level Pressure  
Sea Level Pressure 30.01 in    
Wind  
Wind Speed 4 mph ()    
Max Wind Speed 10 mph    
Max Gust Speed -    
Visibility 7.7 miles    
Events      
Averages and records for this station are not official NWS values.
T = Trace of Precipitation, MM = Missing Value Source: Averaged Metar Reports

Daily Weather History Graph

Daily Weather History Graph

Search for Another Location

Airport:

Trip Planner

Search our weather history database for the weather conditions in past years. The results will help you decide how hot, cold, wet, or windy it might be!

Date:

Astronomy

Feb. 04, 2013 Rise Set
Actual Time 6:22 AM CST 5:40 PM CST
Civil Twilight 5:59 AM CST 6:03 PM CST
Nautical Twilight 5:33 AM CST 6:30 PM CST
Astronomical Twilight 5:07 AM CST 6:56 PM CST
Moon 12:49 AM CST (2/4) 12:14 PM CST (2/4)
Length of Visible Light 12h 04m
Length of Day
11h 18m
Last Quarter, 37% of the Moon is Illuminated
Feb 4
Last Quarter
Feb 10
New
Feb 17
First Quarter
Feb 25
Full
Mar 4
Last Quarter

Hourly Weather History & Observations

Time (CST) Temp. Dew Point Humidity Pressure Visibility Wind Dir Wind Speed Gust Speed Precip Events Conditions
12:40 AM 66.2 °F 50.0 °F 56% 30.05 in 7.0 mi NE 4.6 mph - N/A   Partly Cloudy
2:00 AM 64.4 °F 46.4 °F 52% 30.03 in 7.0 mi NE 4.6 mph - N/A   Partly Cloudy
3:05 AM 64.4 °F 50.0 °F 59% 30.05 in 7.0 mi NE 4.6 mph - N/A   Partly Cloudy
4:48 AM 64.4 °F 46.4 °F 52% 30.02 in 7.0 mi Calm Calm - N/A   Partly Cloudy
5:49 AM 62.6 °F 46.4 °F 55% 29.99 in 7.0 mi NE 3.5 mph - N/A   Partly Cloudy
6:46 AM 60.8 °F 50.0 °F 68% 30.04 in 8.0 mi Calm Calm - N/A   Partly Cloudy
7:40 AM 68.0 °F 51.8 °F 56% 30.05 in 8.0 mi Calm Calm - N/A   Scattered Clouds
8:41 AM 73.4 °F 51.8 °F 47% 30.10 in 8.0 mi ENE 8.1 mph - N/A   Scattered Clouds
9:40 AM 75.2 °F 55.4 °F 50% 30.07 in 8.0 mi NE 10.4 mph - N/A   Scattered Clouds
10:41 AM 75.2 °F 50.0 °F 41% 30.06 in 8.0 mi NE 10.4 mph - N/A   Scattered Clouds
11:49 AM 77.0 °F 53.6 °F 44% 30.00 in 8.0 mi NE 8.1 mph - N/A   Partly Cloudy
12:43 PM 77.0 °F 51.8 °F 41% 30.00 in 8.0 mi NE 10.4 mph - N/A   Scattered Clouds
1:40 PM 77.0 °F 51.8 °F 41% 29.97 in 8.0 mi NE 10.4 mph - N/A   Scattered Clouds
2:40 PM 77.0 °F 51.8 °F 41% 29.99 in 8.0 mi NE 9.2 mph - N/A   Scattered Clouds
3:40 PM 75.2 °F 53.6 °F 47% 29.95 in 8.0 mi ENE 10.4 mph - N/A   Partly Cloudy
4:40 PM 73.4 °F 53.6 °F 50% 29.95 in 8.0 mi ENE 5.8 mph - N/A   Partly Cloudy
5:40 PM 71.6 °F 51.8 °F 50% 29.91 in 8.0 mi East 3.5 mph - N/A   Partly Cloudy
6:40 PM 66.2 °F 50.0 °F 56% 29.96 in 8.0 mi Calm Calm - N/A   Partly Cloudy
7:42 PM 66.2 °F 51.8 °F 60% 29.98 in 8.0 mi ENE 3.5 mph - N/A   Partly Cloudy
8:41 PM 66.2 °F 60.8 °F 83% 30.02 in 8.0 mi ESE 3.5 mph - N/A   Partly Cloudy
9:40 PM 64.4 °F 59.0 °F 83% 30.00 in 7.0 mi Calm Calm - N/A   Partly Cloudy
10:49 PM 64.4 °F 59.0 °F 83% 30.00 in 7.0 mi Calm Calm - N/A   Partly Cloudy
11:49 PM 62.6 °F 59.0 °F 88% 29.95 in 7.0 mi Calm Calm - N/A   Partly Cloudy